OPS 4682 DEB, 38382

Orbit data source: Space-Track

OPS 4682 DEB, 38382 is space debris in LEO originally from a launch on Sat, 03 Apr 1965 UTC launched from the Air Force Western Test Range (AFWTR). Debris objects in space refer to the collection of defunct objects orbiting the Earth. Examples of debris include non-operational satellites, rocket bodies, and fragments generated from explosions, collisions, or faulty payload assembly.

Loading next visibility...
Identifier
38382, 1965-027CK
Orbit
LEO
Country
Flag of USUS
Related business
Manufacturer
Unknown
Mission
Spacecraft
Bus & Motor
Unknown
Mass
Unknown
Launch date (UTC)
1965-04-03 (61 years ago)
Launch vehicle
Unknown
Launch site
Air Force Western Test Range (AFWTR)
Object type
Payload
Rocket body
Debris
Shape & HBR
Unknown shape, 0.1 m
Radar Cross Section
Small (<0.1 m²)

Expand to show TLE details & history
Last TLE update: 2 days ago

TLE from 2 days ago
0 OPS 4682 DEB
1 38382U 65027CK  26034.89359163  .00000822  00000-0  28357-2 0  9992
2 38382  90.2508   5.8945 0024399 148.1197 212.1406 12.96655775 45153
Epoch: 2026-02-03T21:26Z
TLE epoch observation values (Epoch: 2026-02-03T21:26:46.316Z)
Latitude
-0°
Longitude
-89.86647°
Altitude
1,293.924 km
Speed
7.202 km/s
True Right ascension
00h 23m 34s
True Declination
0° 00' 00"
Sunlit
Object was in daylight at epoch
Visualization orbit readout
Latitude
Unknown
Longitude
Unknown
Altitude
Unknown
Speed
Unknown
Apparent Right ascension
Unknown
Apparent Declination
Unknown
Sunlit
N/A
Visualization observer readout
Local Sidereal Time
12:11:54
Azimuth
Unknown
Elevation
Unknown
Doppler factor
Unknown
Orbital elements
Apogee altitude
1,291.016 km
Perigee altitude
1,253.683 km
Semi-major axis
7,650.487 km
Eccentricity
0.00244
Inclination
90.2508°
RAAN
5.8945°
Arg. of periapsis
148.1197°
True anomaly
211.99224°
Mean anomaly
212.1406°
Eccentric anomaly
212.06638°
Mean motion
3.24347 °/min
Orbital period
110.99 mins
BSTAR
0.0028357
Loading maneuver chart data...
Computing Atmospheric mass density...
Loading historical data...
Loading historical data...
Loading historical data...
Loading historical data...
Loading historical data...
Loading historical data...
Loading historical data...

Documentation

Showing up to 5 results
|